Glasgow, KY

4:56 AM CDT on July 26, 2017 (GMT -0500)
Glasgow Municipal

Weather History for KGLW - July, 2013

Change the Weather History Date:

Saturday, July 13, 2013

  Actual Average Record
Temperature  
Mean Temperature 70 °F -  
Max Temperature 81 °F 89 °F 100 °F (1954)
Min Temperature 59 °F 66 °F 53 °F (1975)
Cooling Degree Days 5    
Growing Degree Days 20 (Base 50)    
Moisture  
Dew Point 63 °F    
Average Humidity 81    
Maximum Humidity 100    
Minimum Humidity 59    
Precipitation  
Precipitation 0.11 in - - ()
Sea Level Pressure  
Sea Level Pressure 30.05 in    
Wind  
Wind Speed 2 mph (ENE)    
Max Wind Speed 9 mph    
Max Gust Speed 25 mph    
Visibility 10 miles    
Events Rain , Thunderstorm    
Averages and records for this station are not official NWS values.
T = Trace of Precipitation, MM = Missing Value Source: NWS Daily Summary

Daily Weather History Graph

Daily Weather History Graph

Search for Another Location

Airport or City:

Trip Planner

Search our weather history database for the weather conditions in past years. The results will help you decide how hot, cold, wet, or windy it might be!

Date:

Astronomy

Jul. 13, 2013 Rise Set
Actual Time 5:34 AM CDT 8:04 PM CDT
Civil Twilight 5:04 AM CDT 8:34 PM CDT
Nautical Twilight 4:27 AM CDT 9:11 PM CDT
Astronomical Twilight 3:45 AM CDT 9:52 PM CDT
Moon 10:41 AM CDT (7/13) 10:53 PM CDT (7/13)
Length of Visible Light 15h 29m
Length of Day
14h 29m
Waxing Crescent, 26% of the Moon is Illuminated
Jul 13
Waxing Crescent
Jul 15
First Quarter
Jul 22
Full
Jul 29
Last Quarter
Aug 6
New

Hourly Weather History & Observations

Time (CDT) Temp. Heat Index Dew Point Humidity Pressure Visibility Wind Dir Wind Speed Gust Speed Precip Events Conditions
12:15 AM 62.1 °F - 62.1 °F 100% 30.04 in 10.0 mi Calm Calm - N/A   Clear
12:35 AM 61.7 °F - 61.0 °F 97% 30.03 in 10.0 mi Calm Calm - N/A   Clear
12:55 AM 62.2 °F - 59.7 °F 91% 30.03 in 10.0 mi Calm Calm - N/A   Clear
1:15 AM 62.2 °F - 60.3 °F 93% 30.03 in 10.0 mi Calm Calm - N/A   Clear
1:35 AM 61.5 °F - 60.3 °F 96% 30.03 in 10.0 mi Calm Calm - N/A   Clear
1:55 AM 62.2 °F - 58.8 °F 89% 30.02 in 10.0 mi Calm Calm - N/A   Clear
2:15 AM 61.9 °F - 58.3 °F 88% 30.02 in 10.0 mi Calm Calm - N/A   Clear
2:35 AM 60.3 °F - 59.9 °F 99% 30.02 in 10.0 mi Calm Calm - N/A   Clear
2:55 AM 60.3 °F - 60.3 °F 100% 30.02 in 10.0 mi Calm Calm - N/A   Clear
3:15 AM 60.4 °F - 60.4 °F 100% 30.01 in 10.0 mi Calm Calm - N/A   Clear
3:35 AM 59.9 °F - 59.9 °F 100% 30.01 in 10.0 mi Calm Calm - N/A   Clear
3:55 AM 59.9 °F - 59.9 °F 100% 30.02 in 10.0 mi Calm Calm - N/A   Clear
4:15 AM 59.4 °F - 59.4 °F 100% 30.02 in 10.0 mi Calm Calm - N/A   Clear
4:35 AM 59.5 °F - 59.5 °F 100% 30.02 in 10.0 mi Calm Calm - N/A   Clear
4:55 AM 59.5 °F - 59.5 °F 100% 30.02 in 10.0 mi Calm Calm - N/A   Clear
5:15 AM 59.4 °F - 59.4 °F 100% 30.03 in 10.0 mi Calm Calm - N/A   Clear
5:35 AM 60.1 °F - 59.4 °F 97% 30.03 in 10.0 mi North 3.5 mph - N/A   Clear
5:55 AM 61.0 °F - 58.6 °F 92% 30.03 in 10.0 mi Calm Calm - N/A   Clear
6:15 AM 60.8 °F - 59.9 °F 97% 30.03 in 10.0 mi Calm Calm - N/A   Clear
6:35 AM 62.1 °F - 58.5 °F 88% 30.04 in 10.0 mi Calm Calm - N/A   Clear
6:55 AM 62.8 °F - 58.5 °F 86% 30.04 in 10.0 mi Calm Calm - N/A   Clear
7:15 AM 63.0 °F - 59.0 °F 87% 30.05 in 10.0 mi Calm Calm - N/A   Clear
7:35 AM 63.7 °F - 59.5 °F 86% 30.05 in 10.0 mi Calm Calm - N/A   Clear
7:55 AM 64.2 °F - 61.3 °F 90% 30.05 in 10.0 mi Calm Calm - N/A   Clear
8:15 AM 65.5 °F - 61.2 °F 86% 30.06 in 10.0 mi ENE 3.5 mph - N/A   Clear
8:35 AM 68.0 °F - 60.8 °F 78% 30.05 in 10.0 mi ENE 4.6 mph - N/A   Clear
8:55 AM 69.3 °F - 61.2 °F 75% 30.05 in 10.0 mi Calm Calm - N/A   Clear
9:15 AM 70.9 °F - 62.1 °F 74% 30.06 in 10.0 mi NE 4.6 mph - N/A   Clear
9:35 AM 71.8 °F - 62.8 °F 73% 30.05 in 10.0 mi NE 3.5 mph - N/A   Clear
9:55 AM 70.9 °F - 63.1 °F 76% 30.05 in 10.0 mi Calm Calm - N/A   Clear
10:15 AM 71.8 °F - 63.1 °F 74% 30.05 in 10.0 mi Calm Calm - N/A   Clear
10:35 AM 73.9 °F - 64.0 °F 71% 30.06 in 10.0 mi North 4.6 mph - N/A   Clear
10:55 AM 74.7 °F - 64.6 °F 71% 30.07 in 10.0 mi North 4.6 mph - N/A   Clear
11:15 AM 74.3 °F - 64.6 °F 72% 30.08 in 10.0 mi Calm Calm - N/A   Clear
11:35 AM 74.3 °F - 64.4 °F 71% 30.07 in 10.0 mi Calm Calm - N/A   Clear
11:55 AM 74.8 °F - 64.6 °F 70% 30.07 in 10.0 mi North 4.6 mph - N/A   Clear
12:15 PM 75.0 °F - 64.6 °F 70% 30.07 in 10.0 mi North 5.8 mph - N/A   Clear
12:35 PM 75.0 °F - 64.8 °F 70% 30.07 in 10.0 mi Calm Calm - N/A   Scattered Clouds
12:55 PM 77.4 °F - 65.7 °F 67% 30.05 in 10.0 mi ENE 5.8 mph - N/A   Scattered Clouds
1:15 PM 79.0 °F - 66.2 °F 65% 30.05 in 10.0 mi North 6.9 mph - N/A   Clear
1:35 PM 79.9 °F - 65.7 °F 62% 30.05 in 10.0 mi East 8.1 mph - N/A   Clear
1:55 PM 80.6 °F 82.5 °F 65.5 °F 60% 30.04 in 10.0 mi East 8.1 mph - N/A   Clear
2:15 PM 81.0 °F 83.0 °F 65.8 °F 60% 30.04 in 10.0 mi East 8.1 mph - N/A   Scattered Clouds
2:35 PM 81.0 °F 83.0 °F 66.0 °F 60% 30.04 in 10.0 mi NNE 6.9 mph - N/A   Scattered Clouds
2:55 PM 81.3 °F 83.3 °F 65.8 °F 59% 30.03 in 10.0 mi NNE 5.8 mph - N/A   Scattered Clouds
3:15 PM 79.3 °F - 65.8 °F 63% 30.02 in 10.0 mi ENE 4.6 mph - N/A   Mostly Cloudy
3:35 PM 77.5 °F - 64.6 °F 64% 30.02 in 10.0 mi ENE 8.1 mph 25.3 mph N/A Rain Rain
3:55 PM 73.2 °F - 62.6 °F 69% 30.04 in 10.0 mi East 6.9 mph - N/A Rain Light Rain
4:15 PM 70.5 °F - 63.0 °F 77% 30.05 in 2.0 mi WSW 5.8 mph - 0.11 in Rain Light Rain
4:35 PM 69.6 °F - 64.6 °F 84% 30.05 in 10.0 mi Calm Calm - 0.11 in Thunderstorm Overcast
4:55 PM 71.6 °F - 64.0 °F 77% 30.04 in 10.0 mi East 5.8 mph - 0.11 in   Mostly Cloudy
5:15 PM 74.3 °F - 64.0 °F 70% 30.04 in 10.0 mi Calm Calm - N/A   Clear
5:35 PM 74.8 °F - 64.2 °F 69% 30.03 in 10.0 mi East 4.6 mph - N/A   Clear
5:55 PM 75.9 °F - 65.7 °F 70% 30.03 in 10.0 mi East 5.8 mph - N/A   Clear
6:15 PM 76.5 °F - 66.2 °F 70% 30.04 in 10.0 mi East 4.6 mph - N/A   Clear
6:35 PM 77.4 °F - 66.2 °F 68% 30.05 in 10.0 mi Calm Calm - N/A   Clear
6:55 PM 77.9 °F - 66.9 °F 69% 30.04 in 10.0 mi East 4.6 mph - N/A   Clear
7:15 PM 77.7 °F - 66.2 °F 68% 30.05 in 10.0 mi East 9.2 mph - N/A   Scattered Clouds
7:35 PM 76.1 °F - 65.5 °F 70% 30.06 in 10.0 mi East 5.8 mph - N/A   Clear
7:55 PM 74.7 °F - 65.1 °F 72% 30.06 in 10.0 mi East 8.1 mph - N/A   Clear
8:15 PM 73.6 °F - 64.6 °F 73% 30.06 in 10.0 mi East 3.5 mph - N/A   Scattered Clouds
8:35 PM 72.9 °F - 64.6 °F 75% 30.06 in 10.0 mi East 3.5 mph - N/A   Scattered Clouds
8:55 PM 71.8 °F - 65.3 °F 80% 30.08 in 10.0 mi Calm Calm - N/A   Clear
9:15 PM 71.1 °F - 65.7 °F 83% 30.08 in 10.0 mi Calm Calm - N/A   Clear
9:35 PM 70.7 °F - 65.3 °F 83% 30.09 in 10.0 mi Calm Calm - N/A   Clear
9:55 PM 70.3 °F - 65.3 °F 84% 30.09 in 10.0 mi Calm Calm - N/A   Clear
10:15 PM 70.0 °F - 65.3 °F 85% 30.09 in 10.0 mi ENE 4.6 mph - N/A   Clear
10:35 PM 69.8 °F - 65.5 °F 86% 30.10 in 10.0 mi East 5.8 mph - N/A   Clear
10:55 PM 69.4 °F - 67.1 °F 92% 30.10 in 10.0 mi East 3.5 mph - N/A   Clear
11:15 PM 69.3 °F - 68.0 °F 96% 30.10 in 10.0 mi Calm Calm - N/A   Clear
11:35 PM 68.7 °F - 68.4 °F 99% 30.10 in 10.0 mi Calm Calm - N/A   Scattered Clouds
11:55 PM 68.9 °F - 68.7 °F 99% 30.10 in 10.0 mi Calm Calm - N/A   Mostly Cloudy